FW1657 Weather Reports


time (UTC)temp
C
wind
direction
speed
KPH
gust
KPH
rain 1hr
cm
rain 24hr
cm
rain mn
cm
humidity
%
barometer
mb
20260506234502 7 147 4.8 9.7 0.00 0.13 0.00 90 1012.0
20260506233109 7 149 3.2 8.0 0.00 0.13 0.00 90 1011.9
20260506231559 7 148 3.2 9.7 0.00 0.13 0.00 91 1011.9
20260506230056 7 124 3.2 6.4 0.00 0.13 0.00 91 1011.7
20260506224555 7 145 3.2 4.8 0.00 0.15 0.00 91 1011.5
20260506223058 7 145 0.0 4.8 0.00 0.15 0.00 90 1011.6
20260506221550 7 144 3.2 6.4 0.00 0.15 0.00 90 1011.3
20260506220051 7 165 4.8 8.0 0.00 0.15 0.00 90 1011.1
20260506214544 7 136 4.8 9.7 0.00 0.15 0.15 90 1011.1
20260506213043 7 136 4.8 12.9 0.00 0.15 0.15 90 1011.0
20260506211550 8 134 4.8 12.9 0.00 0.15 0.15 89 1010.9
20260506210041 8 146 3.2 9.7 0.00 0.15 0.15 89 1010.9
20260506204539 8 154 4.8 9.7 0.00 0.15 0.15 88 1010.7
20260506203038 8 180 4.8 9.7 0.00 0.15 0.15 88 1010.8
20260506201537 8 165 4.8 9.7 0.00 0.15 0.15 88 1010.6
20260506200035 8 165 3.2 6.4 0.00 0.15 0.15 87 1010.6
20260506194537 8 162 1.6 8.0 0.00 0.28 0.15 87 1010.4
20260506193034 8 152 3.2 8.0 0.00 0.28 0.15 87 1010.2
20260506191533 8 175 6.4 9.7 0.00 0.28 0.15 86 1009.7
20260506190029 8 177 4.8 9.7 0.00 0.28 0.15 87 1009.6
20260506184526 8 170 4.8 6.4 0.00 0.58 0.15 86 1009.4
20260506183023 9 191 4.8 12.9 0.00 0.58 0.15 87 1009.3
20260506181521 9 174 9.7 19.3 0.00 0.58 0.15 86 1009.3
20260506180018 10 171 9.7 20.9 0.00 0.58 0.15 85 1008.9
20260506174515 10 191 4.8 11.3 0.00 0.71 0.15 85 1008.7
20260506173014 10 229 4.8 19.3 0.00 0.71 0.15 85 1008.5
20260506171512 10 200 6.4 14.5 0.00 0.71 0.15 86 1008.4
20260506170011 10 186 11.3 19.3 0.00 0.71 0.15 85 1008.2
20260506164510 10 175 4.8 12.9 0.00 0.71 0.15 86 1008.2
20260506163009 10 166 8.0 14.5 0.00 0.71 0.15 85 1008.3
20260506161510 10 181 6.4 16.1 0.00 0.71 0.15 86 1008.2
20260506160008 10 200 6.4 19.3 0.00 0.71 0.15 86 1008.2
20260506154506 10 222 6.4 16.1 0.00 0.71 0.15 86 1008.1
20260506153005 10 161 8.0 16.1 0.00 0.71 0.15 86 1008.0
20260506151503 10 156 4.8 16.1 0.00 0.71 0.15 87 1007.9
20260506150002 10 165 8.0 19.3 0.00 0.79 0.15 87 1007.8
20260506144503 11 167 11.3 17.7 0.00 0.79 0.15 88 1007.7
20260506143100 10 208 9.7 20.9 0.00 0.79 0.15 90 1007.6
20260506141600 10 163 11.3 17.7 0.00 0.79 0.15 91 1007.7
20260506140122 10 191 11.3 16.1 0.00 0.79 0.15 91 1007.8
20260506134558 10 150 6.4 16.1 0.00 0.81 0.15 89 1007.7
20260506133134 10 152 8.0 14.5 0.00 0.81 0.15 90 1007.9
20260506131557 10 153 8.0 17.7 0.00 0.81 0.15 89 1007.7
20260506130137 10 136 8.0 14.5 0.00 0.81 0.15 89 1007.6
20260506124554 11 146 11.3 19.3 0.00 0.89 0.15 90 1007.5
20260506123052 10 181 8.0 14.5 0.00 0.89 0.15 91 1007.3
20260506121554 10 161 8.0 16.1 0.00 0.89 0.15 92 1007.2
20260506120052 10 129 6.4 12.9 0.00 0.89 0.15 92 1007.2
20260506114549 10 150 4.8 8.0 0.00 0.91 0.15 92 1007.1
20260506113052 10 146 8.0 12.9 0.00 0.91 0.15 93 1007.0
20260506111547 10 186 3.2 9.7 0.00 0.91 0.15 93 1006.9
20260506110046 10 167 6.4 16.1 0.00 0.91 0.15 93 1006.7
20260506104554 10 172 6.4 12.9 0.00 0.91 0.15 94 1006.6
20260506103045 10 174 6.4 14.5 0.00 0.91 0.15 94 1006.5
20260506101546 10 154 6.4 14.5 0.00 0.91 0.15 94 1006.6
20260506100057 10 125 6.4 14.5 0.00 0.91 0.15 95 1006.5
20260506094544 10 146 8.0 12.9 0.03 0.91 0.15 95 1006.2
20260506093045 10 151 8.0 16.1 0.03 0.91 0.15 95 1006.2
20260506091542 10 196 6.4 16.1 0.03 0.91 0.15 95 1005.9
20260506090043 10 170 6.4 14.5 0.03 0.91 0.15 95 1006.0
20260506084541 10 143 8.0 14.5 0.03 0.89 0.13 95 1005.9
20260506083041 10 137 6.4 14.5 0.03 0.89 0.13 95 1005.8
20260506081552 10 150 8.0 12.9 0.05 0.89 0.13 95 1005.6
20260506073039 10 152 4.8 9.7 0.05 0.89 0.10 96 1005.6
20260506071542 10 167 3.2 8.0 0.05 0.86 0.08 95 1005.4
20260506061543 10 44 11.3 16.1 0.03 0.81 0.05 96 1005.0
20260506044544 10 38 6.4 16.1 0.00 0.79 0.03 95 1004.7
20260506043030 10 61 6.4 14.5 0.00 0.79 0.03 95 1004.8
20260506041532 10 38 11.3 20.9 0.00 0.79 0.03 95 1004.9
20260506040027 10 53 11.3 22.5 0.00 0.79 0.03 95 1005.0
20260506034525 10 38 11.3 16.1 0.00 0.79 0.03 95 1005.2
20260506033028 10 10 11.3 17.7 0.00 0.79 0.03 95 1005.2
20260506031539 10 42 9.7 17.7 0.00 0.79 0.03 95 1005.4
20260506030021 10 75 9.7 17.7 0.00 0.79 0.03 95 1005.3
20260506024526 10 59 9.7 16.1 0.00 0.79 0.03 95 1005.4
20260506023018 10 79 12.9 24.1 0.00 0.79 0.03 95 1005.4
20260506021519 10 96 9.7 22.5 0.00 0.79 0.03 95 1005.5
20260506020017 10 81 12.9 19.3 0.00 0.79 0.03 95 1005.3
20260506014515 10 78 11.3 20.9 0.00 0.79 0.03 95 1005.4
20260506013017 10 70 12.9 22.5 0.00 0.79 0.03 95 1005.4
20260506011517 10 53 16.1 30.6 0.00 0.79 0.03 95 1005.6
20260506010031 10 31 12.9 24.1 0.00 0.79 0.03 95 1005.7
20260506004510 10 48 6.4 20.9 0.00 0.79 0.03 95 1005.8
20260506003009 10 53 17.7 30.6 0.00 0.79 0.03 95 1005.9
20260506001507 10 21 17.7 27.4 0.00 0.79 0.03 95 1006.1
20260506000005 10 44 16.1 27.4 0.00 0.79 0.03 95 1006.1